This is the latest recevied weather packets stored in our database for station/object IU3OVK-13. If no packets are shown the sender has not sent any weather packets the latest 10 day(s).
| Time | Temp. | Humidity | Pressure | Rain* | Wind** | Luminosity | Snow |
|---|---|---|---|---|---|---|---|
| 1787953089 | 23.33° C | 99% | 1004.5 hPa | - | - | - | - |
| 1787952512 | 22.78° C | 99% | 1004.5 hPa | - | - | - | - |
| 1787952469 | 22.78° C | 99% | 1004.5 hPa | - | - | - | - |
| 1787951849 | 23.33° C | 99% | 1004.6 hPa | - | - | - | - |
| 1787951228 | 23.89° C | 99% | 1004.4 hPa | - | - | - | - |
| 1787950608 | 23.33° C | 99% | 1004.5 hPa | - | - | - | - |
| 1787950040 | 23.89° C | 99% | 1004.5 hPa | - | - | - | - |
| 1787949988 | 23.89° C | 99% | 1004.5 hPa | - | - | - | - |
| 1787949375 | 23.89° C | 99% | 1004.3 hPa | - | - | - | - |
| 1787948833 | 23.89° C | 99% | 1004.3 hPa | - | - | - | - |
| 1787948747 | 23.89° C | 99% | 1004.3 hPa | - | - | - | - |
| 1787948127 | 24.44° C | 99% | 1004 hPa | - | - | - | - |
| 1787947507 | 25° C | 99% | 1003.6 hPa | - | - | - | - |
| 1787946887 | 24.44° C | 99% | 1003.7 hPa | - | - | - | - |
| 1787946267 | 24.44° C | 99% | 1004.3 hPa | - | - | - | - |
| 1787945646 | 23.89° C | 99% | 1004.3 hPa | - | - | - | - |
| 1787945026 | 25° C | 99% | 1004 hPa | - | - | - | - |
| 1787944406 | 25° C | 99% | 1004 hPa | - | - | - | - |
| 1787943786 | 25° C | 99% | 1004.1 hPa | - | - | - | - |
| 1787943166 | 25.56° C | 99% | 1003.4 hPa | - | - | - | - |
| 1787942545 | 26.67° C | 99% | 1004.8 hPa | - | - | - | - |
| 1787941925 | 26.11° C | 99% | 1005.2 hPa | - | - | - | - |
| 1787941305 | 26.67° C | 99% | 1005.5 hPa | - | - | - | - |
| 1787940685 | 26.11° C | 99% | 1005.9 hPa | - | - | - | - |
| 1787940065 | 27.22° C | 99% | 1005.8 hPa | - | - | - | - |
* Rain since midnight (hover to see other rain measurements)
** Current wind speed in m/s (hover to see current wind gust speed)